GW2440 Weather Reports


Display with metric or nautical units.
time (UTC)temp
F
wind
direction
speed
MPH
gust
MPH
rain 1hr
in
rain 24hr
in
rain mn
in
humidity
%
barometer
mb
20260902122423 79 154 1.0 1.0 0.00 0.00 0.00 99 1017.9
20260902121918 78 118 1.0 2.0 0.00 0.00 0.00 99 1017.9
20260902121413 78 1 1.0 2.0 0.00 0.00 0.00 99 1017.9
20260902120908 78 349 3.0 3.0 0.00 0.00 0.00 99 1017.9
20260902120404 77 316 1.0 2.0 0.00 0.00 0.00 99 1017.9
20260902115903 77 162 0.0 1.0 0.00 0.00 0.00 99 1017.9
20260902115400 77 21 1.0 2.0 0.00 0.00 0.00 99 1017.9
20260902114856 77 309 1.0 1.0 0.00 0.00 0.00 99 1017.9
20260902114352 77 343 2.0 2.0 0.00 0.00 0.00 99 1017.9
20260902113851 77 346 1.0 1.0 0.00 0.00 0.00 99 1017.9
20260902113347 77 242 1.0 1.0 0.00 0.00 0.00 99 1017.9
20260902112846 77 326 1.0 1.0 0.00 0.00 0.00 99 1017.9
20260902112343 77 358 1.0 1.0 0.00 0.00 0.00 99 1017.9
20260902111838 77 270 1.0 1.0 0.00 0.00 0.00 99 1017.5
20260902111335 77 110 0.0 1.0 0.00 0.00 0.00 99 1017.5
20260902110830 77 109 0.0 1.0 0.00 0.00 0.00 99 1017.5
20260902110326 77 193 0.0 0.0 0.00 0.00 0.00 99 1017.2
20260902105826 77 282 1.0 1.0 0.00 0.00 0.00 99 1017.5
20260902105321 77 357 1.0 2.0 0.00 0.00 0.00 99 1017.5
20260902104816 77 286 0.0 1.0 0.00 0.00 0.00 99 1017.2
20260902104312 77 332 2.0 2.0 0.00 0.00 0.00 99 1017.2
20260902103812 77 27 1.0 2.0 0.00 0.00 0.00 99 1017.5
20260902103307 77 18 1.0 2.0 0.00 0.00 0.00 99 1017.5
20260902102802 77 41 0.0 1.0 0.00 0.00 0.00 99 1017.5
20260902102300 77 212 0.0 0.0 0.00 0.00 0.00 99 1017.5
20260902101755 77 254 0.0 0.0 0.00 0.00 0.00 99 1017.2
20260902101249 77 227 0.0 1.0 0.00 0.00 0.00 99 1017.2
20260902100748 77 223 1.0 1.0 0.00 0.00 0.00 99 1017.2
20260902100243 77 240 1.0 1.0 0.00 0.00 0.00 99 1017.5
20260902095738 76 205 0.0 0.0 0.00 0.00 0.00 99 1017.5
20260902095237 76 146 0.0 0.0 0.00 0.00 0.00 99 1017.2
20260902094732 76 141 0.0 1.0 0.00 0.00 0.00 99 1017.2
20260902094229 76 341 0.0 0.0 0.00 0.00 0.00 99 1016.9
20260902093727 76 47 2.0 2.0 0.00 0.00 0.00 99 1016.9
20260902093224 76 319 0.0 0.0 0.00 0.00 0.00 99 1016.9
20260902092723 76 193 0.0 0.0 0.00 0.00 0.00 99 1016.9
20260902092218 76 230 0.0 0.0 0.00 0.00 0.00 99 1016.9
20260902091717 76 213 0.0 0.0 0.00 0.00 0.00 99 1016.9
20260902091214 76 245 0.0 0.0 0.00 0.00 0.00 99 1016.5
20260902090710 76 236 0.0 0.0 0.00 0.00 0.00 99 1016.5
20260902090209 76 230 0.0 0.0 0.00 0.00 0.00 99 1016.9
20260902085704 76 232 0.0 0.0 0.00 0.00 0.00 99 1016.5
20260902085159 76 224 0.0 0.0 0.00 0.00 0.00 99 1016.2
20260902084655 76 238 0.0 0.0 0.00 0.00 0.00 99 1016.5
20260902084151 76 190 0.0 0.0 0.00 0.00 0.00 99 1016.5
20260902083646 76 199 0.0 0.0 0.00 0.00 0.00 99 1016.5
20260902083145 76 185 0.0 0.0 0.00 0.00 0.00 99 1016.9
20260902082640 76 212 0.0 0.0 0.00 0.00 0.00 99 1016.9
20260902082137 76 212 0.0 1.0 0.00 0.00 0.00 99 1016.5
20260902081633 76 333 0.0 0.0 0.00 0.00 0.00 99 1016.9
20260902081128 76 283 2.0 2.0 0.00 0.00 0.00 99 1016.5
20260902080624 76 217 0.0 0.0 0.00 0.00 0.00 99 1016.5
20260902080120 76 340 0.0 1.0 0.00 0.00 0.00 99 1016.5
20260902075619 76 310 0.0 0.0 0.00 0.00 0.00 99 1016.9
20260902075116 76 251 0.0 0.0 0.00 0.00 0.00 99 1016.5
20260902074611 76 251 0.0 0.0 0.00 0.00 0.00 99 1016.9
20260902074106 77 232 0.0 0.0 0.00 0.00 0.00 99 1016.9
20260902073601 77 201 0.0 0.0 0.00 0.00 0.00 99 1016.5
20260902073058 77 237 0.0 0.0 0.00 0.00 0.00 99 1016.9
20260902072553 77 233 0.0 0.0 0.00 0.00 0.00 99 1017.2
20260902072050 77 258 0.0 0.0 0.00 0.00 0.00 99 1016.9
20260902071549 77 311 0.0 0.0 0.00 0.00 0.00 99 1016.9
20260902071046 77 311 0.0 0.0 0.00 0.00 0.00 99 1016.9
20260902070540 77 311 0.0 0.0 0.00 0.00 0.00 99 1017.2
20260902070035 77 311 0.0 0.0 0.00 0.00 0.00 99 1017.2
20260902065529 77 278 0.0 0.0 0.00 0.00 0.00 99 1017.2
20260902065025 77 272 0.0 0.0 0.00 0.00 0.00 99 1017.2
20260902064521 77 284 0.0 0.0 0.00 0.00 0.00 99 1017.2
20260902064016 77 296 0.0 0.0 0.00 0.00 0.00 99 1017.5
20260902063515 77 318 0.0 0.0 0.00 0.00 0.00 99 1017.5
20260902063011 77 318 0.0 0.0 0.00 0.00 0.00 99 1017.2
20260902062509 77 317 0.0 0.0 0.00 0.00 0.00 99 1017.2
20260902062005 77 317 0.0 0.0 0.00 0.00 0.00 99 1017.2
20260902061459 77 317 0.0 0.0 0.00 0.00 0.00 99 1017.2
20260902060955 77 317 0.0 0.0 0.00 0.00 0.00 99 1017.2
20260902060451 77 318 0.0 0.0 0.00 0.00 0.00 99 1016.9
20260902055947 77 318 0.0 0.0 0.00 0.00 0.00 99 1017.2
20260902055443 77 318 0.0 0.0 0.00 0.00 0.00 99 1017.2
20260902054938 77 318 0.0 0.0 0.00 0.00 0.00 99 1017.2
20260902054433 77 318 0.0 0.0 0.00 0.00 0.00 99 1017.2
20260902053928 78 318 0.0 0.0 0.00 0.00 0.00 99 1017.5
20260902053424 78 318 0.0 0.0 0.00 0.00 0.00 99 1017.5
20260902052923 78 318 0.0 0.0 0.00 0.00 0.00 99 1017.2
20260902052418 78 318 0.0 0.0 0.00 0.00 0.00 99 1017.5
20260902051913 78 318 0.0 0.0 0.00 0.00 0.00 99 1017.2
20260902051408 78 318 0.0 0.0 0.00 0.00 0.00 99 1017.2
20260902050907 78 319 0.0 0.0 0.00 0.00 0.00 99 1017.2
20260902050407 78 319 0.0 0.0 0.00 0.00 0.00 99 1017.5
20260902045901 78 319 0.0 0.0 0.00 0.00 0.00 99 1017.2
20260902045358 78 313 0.0 0.0 0.00 0.00 0.00 99 1017.5
20260902044854 78 346 0.0 0.0 0.00 0.00 0.00 99 1017.2
20260902044349 78 107 0.0 0.0 0.00 0.00 0.00 99 1017.2
20260902043849 78 205 0.0 0.0 0.00 0.00 0.00 99 1017.2
20260902043344 78 343 0.0 0.0 0.00 0.00 0.00 99 1017.2
20260902042839 78 314 0.0 0.0 0.00 0.00 0.00 99 1017.2
20260902042338 78 341 0.0 0.0 0.00 0.00 0.00 99 1017.2
20260902041833 78 20 0.0 0.0 0.00 0.00 0.00 99 1017.5
20260902041328 78 347 0.0 1.0 0.00 0.00 0.00 99 1017.9
20260902040826 78 193 0.0 0.0 0.00 0.00 0.00 99 1017.9
20260902040322 78 322 0.0 0.0 0.00 0.00 0.00 99 1017.5
20260902035821 79 208 0.0 0.0 0.00 0.05 0.05 98 1017.9
20260902035317 79 332 0.0 0.0 0.00 0.05 0.05 98 1017.9
20260902034815 79 5 0.0 0.0 0.00 0.05 0.05 98 1017.9
20260902034311 79 69 0.0 0.0 0.00 0.05 0.05 98 1017.9
20260902033808 79 60 0.0 0.0 0.00 0.05 0.05 98 1017.9
20260902033304 79 31 0.0 0.0 0.00 0.05 0.05 98 1017.9
20260902032803 79 357 0.0 2.0 0.00 0.05 0.05 98 1017.9
20260902032258 79 34 0.0 0.0 0.00 0.05 0.05 97 1018.2
20260902031757 79 41 0.0 0.0 0.00 0.05 0.05 97 1018.2
20260902031253 79 9 0.0 0.0 0.00 0.05 0.05 97 1018.2
20260902030748 79 41 0.0 0.0 0.00 0.05 0.05 97 1018.2
20260902030244 79 47 0.0 1.0 0.00 0.05 0.05 97 1017.9
20260902025742 79 24 0.0 0.0 0.00 0.05 0.05 96 1017.9
20260902025238 79 65 2.0 2.0 0.00 0.05 0.05 96 1018.2
20260902024732 79 335 0.0 0.0 0.00 0.05 0.05 95 1018.2
20260902024228 79 353 0.0 0.0 0.00 0.05 0.05 94 1018.6
20260902023724 79 336 0.0 0.0 0.00 0.05 0.05 94 1018.2
20260902023219 79 355 1.0 1.0 0.00 0.05 0.05 93 1018.2
20260902022719 79 34 2.0 2.0 0.00 0.05 0.05 93 1018.6
20260902022214 80 355 3.0 3.0 0.00 0.05 0.05 93 1018.6
20260902021709 80 49 1.0 1.0 0.00 0.05 0.05 93 1018.6
20260902021204 80 87 0.0 0.0 0.00 0.05 0.05 93 1018.2
20260902020700 80 103 0.0 0.0 0.00 0.05 0.05 93 1018.2
20260902020156 80 122 0.0 0.0 0.00 0.05 0.05 92 1018.2
20260902015651 80 102 0.0 0.0 0.00 0.05 0.05 92 1018.2
20260902015148 80 143 0.0 0.0 0.00 0.05 0.05 92 1018.6
20260902014643 80 65 2.0 2.0 0.00 0.05 0.05 92 1018.6
20260902014138 80 92 0.0 1.0 0.00 0.05 0.05 92 1018.2
20260902013637 80 60 1.0 1.0 0.00 0.05 0.05 92 1018.6
20260902013133 80 52 2.0 2.0 0.00 0.05 0.05 92 1018.2
20260902012629 80 58 2.0 2.0 0.00 0.05 0.05 92 1017.9
20260902012124 80 30 3.0 3.0 0.00 0.05 0.05 93 1018.2
20260902011620 80 64 2.0 2.0 0.00 0.05 0.05 94 1018.2
20260902011119 80 98 1.0 2.0 0.00 0.05 0.05 95 1018.2
20260902010619 80 55 3.0 3.0 0.00 0.05 0.05 94 1018.2
20260902010115 80 48 2.0 3.0 0.00 0.05 0.05 94 1018.2
20260902005612 80 15 3.0 3.0 0.00 0.05 0.05 94 1018.2
20260902005109 81 31 3.0 5.0 0.00 0.05 0.05 94 1018.2
20260902004608 81 49 3.0 5.0 0.00 0.05 0.05 93 1017.9
20260902004103 81 38 3.0 5.0 0.00 0.05 0.05 93 1017.9
20260902003558 81 56 3.0 6.0 0.00 0.05 0.05 93 1017.9
20260902003054 81 46 5.0 6.0 0.00 0.05 0.05 92 1017.9
20260902002549 81 31 4.0 6.0 0.00 0.05 0.05 92 1018.2
20260902002044 81 63 6.0 7.0 0.00 0.05 0.05 92 1018.2
20260902001538 81 55 3.0 5.0 0.00 0.05 0.05 92 1018.2
20260902001034 81 48 4.0 5.0 0.00 0.05 0.05 92 1017.9
20260902000528 82 28 3.0 3.0 0.00 0.05 0.05 93 1017.9
20260902000024 82 47 2.0 3.0 0.00 0.05 0.05 92 1017.9
20260901235518 82 25 4.0 5.0 0.00 0.05 0.05 92 1017.9
20260901235014 82 23 2.0 2.0 0.00 0.05 0.05 91 1017.5
20260901234512 82 65 4.0 5.0 0.00 0.05 0.05 91 1017.9
20260901234008 82 50 3.0 3.0 0.00 0.05 0.05 92 1017.9
20260901233503 82 82 2.0 2.0 0.00 0.05 0.05 91 1017.9
20260901232959 82 40 7.0 8.0 0.00 0.05 0.05 91 1017.9
20260901232454 82 34 2.0 2.0 0.00 0.05 0.05 91 1017.9
20260901231949 83 39 3.0 5.0 0.00 0.05 0.05 91 1018.2
20260901231445 83 18 3.0 3.0 0.00 0.05 0.05 91 1017.9
20260901230942 83 55 2.0 3.0 0.00 0.05 0.05 90 1017.9
20260901230441 83 72 3.0 5.0 0.00 0.05 0.05 89 1017.5
20260901225936 84 355 3.0 5.0 0.00 0.05 0.05 87 1017.5
20260901225436 84 67 3.0 3.0 0.00 0.05 0.05 86 1017.5
20260901224931 84 47 4.0 5.0 0.00 0.05 0.05 86 1017.5
20260901224427 84 43 5.0 6.0 0.00 0.05 0.05 85 1017.2
20260901223923 84 358 4.0 5.0 0.00 0.05 0.05 84 1017.5
20260901223418 85 67 4.0 6.0 0.00 0.05 0.05 83 1017.2
20260901222914 85 50 4.0 5.0 0.00 0.05 0.05 83 1017.5
20260901222410 85 44 5.0 6.0 0.00 0.05 0.05 83 1017.5
20260901221906 85 68 6.0 8.0 0.00 0.05 0.05 83 1017.2
20260901221401 86 53 3.0 3.0 0.00 0.05 0.05 82 1017.2
20260901220856 85 36 4.0 5.0 0.00 0.05 0.05 82 1017.2
20260901220354 86 72 9.0 10.0 0.00 0.05 0.05 81 1017.2
20260901215854 86 39 5.0 8.0 0.00 0.05 0.05 82 1017.2
20260901215353 86 62 5.0 8.0 0.00 0.05 0.05 82 1016.9
20260901214852 86 50 7.0 8.0 0.00 0.05 0.05 81 1016.9
20260901214351 86 85 6.0 8.0 0.00 0.05 0.05 82 1016.9
20260901213850 85 68 3.0 3.0 0.00 0.05 0.05 83 1017.2
20260901213345 85 60 4.0 5.0 0.00 0.05 0.05 83 1016.9
20260901212839 85 58 5.0 7.0 0.00 0.05 0.05 82 1016.9
20260901212335 85 58 7.0 8.0 0.00 0.05 0.05 82 1016.9
20260901211831 85 46 7.0 9.0 0.00 0.05 0.05 82 1017.2
20260901211327 86 53 9.0 13.0 0.00 0.05 0.05 81 1017.2
20260901210822 86 72 5.0 8.0 0.00 0.05 0.05 83 1017.2
20260901210318 86 54 10.0 13.0 0.00 0.05 0.05 82 1016.9
20260901205814 86 46 4.0 6.0 0.00 0.05 0.05 83 1017.2
20260901205314 85 52 7.0 8.0 0.00 0.05 0.05 83 1017.2
20260901204809 84 100 4.0 6.0 0.00 0.05 0.05 86 1017.2
20260901204306 84 46 3.0 3.0 0.00 0.05 0.05 89 1017.2
20260901203805 84 32 4.0 5.0 0.00 0.05 0.05 88 1017.2
20260901203300 85 55 4.0 6.0 0.00 0.05 0.05 87 1017.2
20260901202759 85 63 3.0 5.0 0.00 0.05 0.05 85 1017.5
20260901202255 86 35 6.0 8.0 0.00 0.05 0.05 85 1017.2
20260901201751 85 86 3.0 3.0 0.00 0.05 0.05 85 1017.2
20260901201250 85 53 3.0 3.0 0.00 0.05 0.05 84 1017.2
20260901200744 85 75 3.0 5.0 0.00 0.05 0.05 85 1017.5
20260901200240 85 63 6.0 7.0 0.00 0.05 0.05 84 1017.5
20260901195738 85 63 6.0 7.0 0.00 0.05 0.05 84 1017.9
20260901195232 85 33 5.0 7.0 0.00 0.05 0.05 83 1017.5
20260901194728 85 25 4.0 6.0 0.00 0.05 0.05 84 1017.5
20260901194222 85 64 3.0 5.0 0.00 0.05 0.05 84 1017.9
20260901193718 85 52 2.0 3.0 0.00 0.05 0.05 84 1017.5
20260901193212 85 54 7.0 8.0 0.00 0.05 0.05 83 1017.5
20260901192707 85 42 6.0 8.0 0.00 0.05 0.05 83 1017.9
20260901192203 85 37 3.0 3.0 0.00 0.05 0.05 84 1017.9
20260901191658 86 37 3.0 5.0 0.00 0.05 0.05 83 1017.9
20260901191154 85 12 8.0 9.0 0.00 0.05 0.05 83 1017.9
20260901190650 86 57 7.0 8.0 0.00 0.05 0.05 83 1017.9
20260901190149 85 53 5.0 8.0 0.00 0.05 0.05 86 1017.9
20260901185647 85 50 3.0 5.0 0.00 0.05 0.05 86 1017.9
20260901185146 86 60 7.0 9.0 0.00 0.05 0.05 85 1017.9
20260901184643 85 54 5.0 7.0 0.00 0.05 0.05 84 1017.9
20260901184137 86 39 8.0 10.0 0.00 0.05 0.05 83 1017.9
20260901183632 86 32 5.0 6.0 0.00 0.05 0.05 86 1017.9
20260901183127 86 77 1.0 2.0 0.00 0.05 0.05 87 1018.2
20260901182623 85 10 4.0 5.0 0.00 0.05 0.05 87 1018.2
20260901182122 84 49 4.0 6.0 0.00 0.05 0.05 88 1018.6
20260901181616 85 52 5.0 7.0 0.00 0.05 0.05 89 1018.9
20260901181116 85 89 4.0 5.0 0.00 0.05 0.05 88 1018.6
20260901180610 85 47 5.0 7.0 0.00 0.05 0.05 86 1018.6
20260901180104 85 88 4.0 5.0 0.00 0.05 0.05 88 1018.6
20260901175557 86 50 10.0 13.0 0.00 0.05 0.05 86 1018.2
20260901175052 85 99 6.0 7.0 0.00 0.05 0.05 88 1018.6
20260901174548 85 69 2.0 3.0 0.00 0.05 0.05 90 1018.9
20260901174044 84 60 3.0 5.0 0.00 0.05 0.05 89 1018.9
20260901173538 85 51 2.0 3.0 0.00 0.05 0.05 90 1018.9
20260901173034 85 32 2.0 3.0 0.00 0.05 0.05 91 1018.9
20260901172530 85 50 9.0 10.0 0.00 0.05 0.05 88 1018.9
20260901172028 86 43 4.0 6.0 0.00 0.05 0.05 87 1018.9
20260901171527 85 53 5.0 6.0 0.00 0.05 0.05 90 1019.2
20260901171025 84 66 3.0 5.0 0.00 0.05 0.05 92 1019.2
20260901170520 83 67 3.0 5.0 0.00 0.05 0.05 91 1019.2
20260901170015 82 53 3.0 5.0 0.00 0.05 0.05 95 1018.9
20260901165509 81 56 2.0 2.0 0.00 0.05 0.05 96 1019.2
20260901165004 81 71 1.0 2.0 0.00 0.05 0.05 98 1018.9
20260901164500 80 223 1.0 1.0 0.00 0.05 0.05 96 1019.6
20260901163954 79 44 0.0 0.0 0.05 0.05 0.05 99 1019.6
20260901163450 79 42 0.0 0.0 0.17 0.05 0.05 99 1019.2
20260901162948 79 49 2.0 3.0 0.24 0.04 0.04 99 1019.2
20260901162444 79 50 4.0 6.0 0.12 0.02 0.02 97 1019.6
20260901161943 81 41 6.0 8.0 0.00 0.00 0.00 93 1019.6
20260901161443 80 13 5.0 6.0 0.00 0.00 0.00 91 1019.6
20260901160937 82 62 7.0 10.0 0.00 0.00 0.00 90 1019.6
20260901160433 82 46 9.0 15.0 0.00 0.00 0.00 91 1019.6
20260901155932 84 54 9.0 13.0 0.00 0.00 0.00 90 1019.6
20260901155427 86 63 6.0 8.0 0.00 0.00 0.00 84 1019.6
20260901154924 86 59 3.0 3.0 0.00 0.00 0.00 84 1019.6
20260901154423 84 36 3.0 5.0 0.00 0.00 0.00 85 1019.2
20260901153918 85 64 3.0 3.0 0.00 0.00 0.00 85 1019.2
20260901153418 86 67 3.0 3.0 0.00 0.00 0.00 84 1019.6
20260901152912 87 51 5.0 8.0 0.00 0.00 0.00 83 1019.6
20260901152407 86 280 3.0 3.0 0.00 0.00 0.00 81 1019.6
20260901151901 87 47 3.0 5.0 0.00 0.00 0.00 84 1019.6
20260901151401 86 358 4.0 6.0 0.00 0.00 0.00 82 1019.6
20260901150900 84 71 2.0 3.0 0.00 0.00 0.00 86 1019.6
20260901150353 85 0 3.0 3.0 0.00 0.00 0.00 85 1019.6
20260901145850 85 26 2.0 2.0 0.00 0.00 0.00 85 1019.6
20260901145350 85 16 4.0 5.0 0.00 0.00 0.00 85 1019.6
20260901144845 85 73 1.0 2.0 0.00 0.00 0.00 84 1019.2
20260901144341 84 28 4.0 5.0 0.00 0.00 0.00 85 1019.2
20260901143837 84 33 3.0 5.0 0.00 0.00 0.00 87 1019.2
20260901143333 84 24 2.0 3.0 0.00 0.00 0.00 87 1019.2
20260901142829 84 359 3.0 5.0 0.00 0.00 0.00 87 1019.2
20260901142328 85 56 1.0 1.0 0.00 0.00 0.00 88 1019.2
20260901141823 83 55 1.0 2.0 0.00 0.00 0.00 88 1019.2
20260901141318 83 358 5.0 7.0 0.00 0.00 0.00 90 1019.6
20260901140817 83 62 4.0 5.0 0.00 0.00 0.00 91 1018.9
20260901140315 84 77 2.0 2.0 0.00 0.00 0.00 91 1019.2
20260901135810 84 60 2.0 5.0 0.00 0.00 0.00 89 1018.9
20260901135305 84 36 2.0 2.0 0.00 0.00 0.00 90 1018.9
20260901134801 83 24 5.0 6.0 0.00 0.00 0.00 91 1018.9
20260901134301 83 16 5.0 6.0 0.00 0.00 0.00 91 1019.2
20260901133755 83 60 5.0 6.0 0.00 0.00 0.00 92 1018.9
20260901133254 82 32 4.0 6.0 0.00 0.00 0.00 92 1018.9
20260901132753 83 67 3.0 3.0 0.00 0.00 0.00 92 1018.9
20260901132248 82 298 4.0 5.0 0.00 0.00 0.00 93 1018.9
20260901131743 82 11 3.0 3.0 0.00 0.00 0.00 95 1018.9
20260901131242 82 58 3.0 5.0 0.00 0.00 0.00 96 1018.9
20260901130737 81 62 2.0 2.0 0.00 0.00 0.00 95 1019.2
20260901130237 81 46 2.0 2.0 0.00 0.00 0.00 96 1018.9
20260901125734 81 70 3.0 3.0 0.00 0.00 0.00 96 1018.9
20260901125229 81 45 2.0 2.0 0.00 0.00 0.00 95 1018.9
20260901124724 81 2 4.0 5.0 0.00 0.00 0.00 95 1018.9
20260901124219 81 184 1.0 2.0 0.00 0.00 0.00 96 1018.9
20260901123718 81 158 1.0 1.0 0.00 0.00 0.00 97 1018.9
20260901123214 81 50 2.0 2.0 0.00 0.00 0.00 97 1018.9
20260901122712 80 86 2.0 2.0 0.00 0.00 0.00 98 1018.6